Location: Cactus School
(34.5700°N, 118.0931°W)
Time: 17:42:49
(UTC-08:00)

Vanguard 1 - All Passes

Search period start: 20 February 2018 00:00
Search period end: 02 March 2018 00:00
Orbit: 650 x 3833 km, 34.2° (Epoch: 19 February)

Date Brightness Start Highest point End Pass type
(mag) Time Alt. Az. Time Alt. Az. Time Alt. Az.
20 Feb - 10:46:32 10° S 10:59:04 20° SSE 11:08:16 10° ESE daylight
20 Feb - 13:07:11 10° SW 13:22:47 47° SSE 13:31:29 10° E daylight
20 Feb - 15:32:54 10° WSW 15:44:51 80° S 15:51:14 10° E daylight
20 Feb - 17:58:13 10° W 18:05:42 80° S 18:10:28 10° ESE visible
20 Feb - 20:21:17 10° W 20:25:15 24° SSW 20:28:51 10° SSE visible
21 Feb - 11:05:18 10° SSW 11:20:31 28° SSE 11:30:49 10° E daylight
21 Feb - 13:28:06 10° SW 13:44:02 57° SSE 13:52:36 10° E daylight
21 Feb - 15:54:32 10° W 16:05:58 86° S 16:12:08 10° E daylight
21 Feb - 18:19:36 10° W 18:26:38 68° SSW 18:31:17 10° ESE visible
21 Feb - 20:43:13 10° WSW 20:45:56 15° SW 20:48:32 10° S visible
22 Feb - 09:11:38 10° SSE 09:17:14 12° SE 09:22:20 10° SE daylight
22 Feb - 11:24:54 10° SSW 11:41:54 36° SSE 11:52:40 10° E daylight
22 Feb - 13:49:20 10° WSW 14:05:15 67° SSE 14:13:36 10° E daylight
22 Feb - 16:16:11 10° W 16:27:05 89° S 16:33:01 10° E daylight
22 Feb - 18:40:59 10° W 18:47:30 52° SSW 18:52:00 10° SE visible
23 Feb - 09:26:33 10° S 09:38:45 18° SE 09:48:37 10° ESE daylight
23 Feb - 11:45:04 10° SW 12:03:16 44° SSE 12:14:09 10° E daylight
23 Feb - 14:10:50 10° WSW 14:26:27 76° SSE 14:34:33 10° E daylight
23 Feb - 16:37:50 10° W 16:48:10 87° S 16:53:54 10° E daylight
23 Feb - 19:02:24 10° W 19:08:15 37° SSW 19:12:30 10° SE visible
24 Feb - 09:44:27 10° S 10:00:11 25° SE 10:11:59 10° E daylight
24 Feb - 12:05:42 10° SW 12:24:36 53° SSE 12:35:24 10° E daylight
24 Feb - 14:32:30 10° WSW 14:47:39 83° S 14:55:28 10° E daylight
24 Feb - 16:59:26 10° W 17:09:13 80° SSW 17:14:46 10° ESE daylight
24 Feb - 19:24:00 10° W 19:28:54 25° SW 19:32:42 10° SSE visible
25 Feb - 10:03:30 10° SSW 10:21:34 32° SE 10:34:19 10° E daylight
25 Feb - 12:26:43 10° SW 12:45:55 63° SSE 12:56:30 10° E daylight
25 Feb - 14:54:17 10° W 15:08:53 88° S 15:16:23 10° E daylight
25 Feb - 17:20:59 10° W 17:30:12 69° SSW 17:35:33 10° ESE daylight
25 Feb - 19:46:04 10° WSW 19:49:27 16° SW 19:52:20 10° S visible
26 Feb - 08:08:26 10° SSE 08:18:01 14° SE 08:26:39 10° ESE daylight
26 Feb - 10:23:14 10° SSW 10:42:56 40° SSE 10:56:08 10° E daylight
26 Feb - 12:48:03 10° WSW 13:07:13 72° SSE 13:17:31 10° E daylight
26 Feb - 15:16:08 10° W 15:30:05 89° S 15:37:18 10° E daylight
26 Feb - 17:42:31 10° W 17:51:04 55° SSW 17:56:13 10° SE daylight
27 Feb - 08:24:47 10° S 08:39:22 21° SE 08:51:43 10° E daylight
27 Feb - 10:43:30 10° SW 11:04:17 49° SSE 11:17:35 10° E daylight
27 Feb - 13:09:39 10° WSW 13:28:33 79° SSE 13:38:31 10° E daylight
27 Feb - 15:37:56 10° W 15:51:16 87° S 15:58:12 10° E daylight
27 Feb - 18:04:05 10° W 18:11:48 40° SSW 18:16:42 10° SE visible
28 Feb - 08:43:01 10° S 09:00:39 28° SE 09:14:52 10° E daylight
28 Feb - 11:04:11 10° SW 11:25:39 58° SSE 11:38:52 10° E daylight
28 Feb - 13:31:26 10° WSW 13:49:52 85° S 13:59:30 10° E daylight
28 Feb - 15:59:43 10° W 16:12:24 80° SSW 16:19:04 10° ESE daylight
28 Feb - 18:25:49 10° W 18:32:23 28° SW 18:36:53 10° SSE visible
01 Mar - 09:02:13 10° SSW 09:21:55 36° SE 09:37:09 10° E daylight
01 Mar - 11:25:14 10° SW 11:47:03 67° SSE 12:00:01 10° E daylight
01 Mar - 13:53:20 10° W 14:11:13 88° S 14:20:27 10° E daylight
01 Mar - 16:21:25 10° W 16:33:25 70° SSW 16:39:50 10° ESE daylight
01 Mar - 18:47:56 10° W 18:52:50 19° SW 18:56:33 10° S visible
